Location: Ca�n Batista
(41.4099°N, 1.7752°E)
Time: 13:28:33
(UTC+00:00)

SME Rocket - Pass Details

Date: 03 March 2021
Orbit: 550 x 2652 km, 99.9° (Epoch: 21 April)

Event Time Altitude Azimuth Distance (km) Brightness Sun altitude
Rises 19:09:08 0° 17° (NNE) 4,781 7.5 -16.4°
Reaches altitude 10° 19:12:40 10° 22° (NNE) 3,463 6.7 -17.0°
Maximum altitude 19:20:01 51° 97° (E) 1,228 4.1 -18.4°
Drops below altitude 10° 19:24:54 10° 173° (S) 2,309 5.8 -19.3°
Sets 19:26:52 0° 179° (S) 3,075 6.5 -19.7°
